www.pogodaiklimat.ru

Погода и климат >> Архив погоды >> Россия >> Нижегородская область >> Лукоянов


АРХИВ ПОГОДЫ в Лукоянове

Время (UTC), дата Ветер
(напр.,м/с)
 
Видим.   Явления Облачность Т
(С)
Тd
(С)
f
(%)
Тe
(С)
Тes
(С)
Комфортность P
(гПа)
Po
(гПа)
Тmin
(С)
Tmax
(С)
R
(мм)
R24
(мм)
S
(см)
18 14.05 С 1-3
{6}
10 км 10/6 1000 м
[Cu med, cong Ci fib]
+21.2 +11.5 54 +23 +23 комфорт 1014.0 988.7
21 14.05 штиль 0
{3}
10 км 10/10 1000 м
[Sc]
+17.6 +12.0 70 +18 +18 1013.7 988.1
00 15.05 Ю 2-3
{3}
10 км 5/0
[Ac und]
+16.6 +12.6 77 +17 +17 1014.3 988.6
03 15.05 СЗ 1-2
{3}
20 км 3/0
[Ci fib]
+18.2 +12.6 70 +20 +21 1013.7 988.2 +14.7
06 15.05 ЮЗ 1-3
{4}
20 км 5/0
[Ci fib]
+23.2 +14.2 57 +27 +37 душно 1014.3 989.2
09 15.05 З 1-3
{4}
20 км 4/4 1000 м
[Cu hum]
+26.7 +10.7 37 +28 +38 жарко 1013.9 989.0
12 15.05 С 2-4
{7}
20 км слаб. ливневой дождь {гроза} 10/10 600 м
[Cb cap]
+21.8 +13.7 60 +25 +25 комфорт 1014.6 989.4
15 15.05 СЗ 1-3
{4}
10 км {гроза, ливн. осадки} 10/10 600 м
[Cb cap]
+20.5 +15.2 72 +24 +24 комфорт 1014.4 989.0 +26.7 0.2
18 15.05 С 1-2
{5}
10 км {гроза, ливн. осадки} 10/8 600 м
[Cb cap Ac und]
+16.7 +14.2 85 +18 +18 1016.2 990.5
21 15.05 штиль 0
{3}
10 км 10/0
[Ci sp]
+14.9 +13.6 92 +15 +15 1015.5 989.7
00 16.05 штиль 0
{3}
10 км 8/0
[Ac und Ci fib]
+13.4 +12.8 96 +13 +13 1015.2 989.2
03 16.05 Ю 1-2
{4}
10 км 10/10 600 м
[Cb cap]
+14.5 +14.1 97 +15 +15 1015.1 989.2 +12.8
06 16.05 СЗ 2-3
{4}
4000 м слаб. ливневой дождь 10/10 300 м
[Cb cap]
+15.9 +15.4 97 +16 +16 1015.7 990.0
09 16.05 С 4-8
{8}
4000 м дымка {ливн. осадки} 10/10 300 м
[Cb cap]
+14.3 +13.7 96 +13 +13 1017.1 991.2
12 16.05 СЗ 4-8
{8}
20 км {ливн. осадки} 8/8 600 м
[Cb cap]
+17.6 +12.2 71 +17 +19 1017.8 992.1
15 16.05 СЗ 3-8
{9}
20 км 3/3 1000 м
[Cu hum]
+17.6 +8.5 55 +18 +19 1018.2 992.5 +18.6 5
18 16.05 СЗ 2-5
{8}
10 км ясно +12.0 +3.8 57 +11 +11 1020.2 993.9
21 16.05 С 2-4
{6}
10 км 3/0
[Ac trans]
+10.1 +2.9 61 +9 +9 1021.0 994.5
00 17.05 С 2-5
{6}
10 км ясно +7.0 +2.9 75 +5 +5 1022.2 995.4
03 17.05 С 1-3
{5}
10 км ясно +8.5 +2.9 68 +8 +10 1023.2 996.5 +5.6
06 17.05 С 2-5
{6}
20 км ясно +12.2 +0.6 45 +12 +21 1023.5 997.2
09 17.05 СЗ 2-6
{8}
20 км 6/5 1000 м
[Cu med, cong Ci fib]
+14.2 +0.2 38 +14 +21 1022.7 996.6
12 17.05 СЗ 3-6
{7}
20 км 3/3 1000 м
[Cu med, cong]
+15.4 +0.4 36 +15 +21 1021.1 995.1
15 17.05 З 3-6
{8}
20 км 3/3 1000 м
[Cu med, cong]
+15.0 -0.9 34 +15 +16 1020.0 994.0 +15.7
18 17.05 З 2-2
{6}
10 км ясно +10.4 +1.3 53 +9 +9 1020.0 993.6
21 17.05 З 2-3
{4}
10 км ясно +7.9 +1.3 63 +6 +6 1018.9 992.4
00 18.05 З 2-4
{5}
10 км ясно +6.5 +0.9 67 +5 +5 1018.0 991.3
03 18.05 З 3-5
{6}
10 км ясно +8.5 +1.5 61 +6 +8 1017.0 990.5 +6.0
06 18.05 З 3-7
{8}
20 км ясно +14.6 +4.5 51 +14 +22 1015.6 989.6
09 18.05 СЗ 3-9
{11}
20 км 1/1 1000 м
[Cu hum]
+17.5 +1.1 33 +18 +29 1015.6 988.9
12 18.05 СЗ 6-12
{12}
20 км ясно +17.9 -1.7 26 +17 +21 1013.7 988.0
15 18.05 СЗ 4-7
{12}
20 км 10/0
[Ac trans Ci fib]
+16.9 -1.7 28 +17 +17 1013.1 987.4 +18.2
18 18.05 СЗ 2-4
{9}
10 км 3/0
[Ci fib]
+11.0 -0.5 45 +10 +10 1014.4 988.2
21 18.05 З 2-3
{4}
10 км 10/0
[Ac und]
+7.6 -0.0 59 +6 +6 1013.9 987.4
00 19.05 СЗ 1-2
{8}
10 км 10/3 600 м
[Cb cap Ac und]
+8.4 +2.1 65 +8 +8 1013.8 987.4
03 19.05 С 2-6
{7}
10 км 3/0
[Ci fib]
+8.2 +1.3 62 +7 +8 1014.5 988.0 +7.4
06 19.05 СЗ 4-9
{9}
20 км 3/3 1000 м
[Cu hum]
+10.0 -1.2 46 +8 +13 1014.7 988.4
09 19.05 СЗ 4-8
{11}
20 км 4/4 1000 м
[Cu hum]
+12.5 -0.7 40 +11 +17 1014.8 988.7
12 19.05 СЗ 4-8
{9}
20 км 4/4 1000 м
[Cu hum]
+13.1 -0.2 40 +12 +16 1015.0 988.9
15 19.05 С 4-8
{10}
20 км ясно +11.4 -2.2 39 +10 +11 1016.6 990.3 +13.4
18 19.05 С 1-3
{8}
10 км 3/0
[Ac trans]
+6.5 -1.6 56 +6 +6 1018.7 992.0
21 19.05 С 1-1
{4}
10 км ясно +3.4 -0.7 74 +2 +2 1020.0 992.9
00 20.05 З 2-2
{3}
10 км ясно +1.4 -1.5 81 -2 -2 1020.9 993.6
03 20.05 З 3-5
{5}
20 км 1/0
[Ac trans]
+2.5 -0.5 81 -2 -0 1022.1 994.8 +0.2
06 20.05 З 4-9
{9}
20 км 3/3 1000 м
[Cu hum]
+11.0 -1.2 43 +9 +14 1020.9 994.5
09 20.05 СЗ 4-7
{9}
20 км 10/10 1000 м
[Sc]
+12.8 -0.9 39 +11 +11 1020.6 994.3
12 20.05 СЗ 2-6
{9}
20 км 8/8 1000 м
[Cu med, cong]
+14.2 -1.7 33 +14 +16 1020.2 994.1
15 20.05 С 2-5
{7}
20 км 8/8 1000 м
[Cu med, cong]
+14.0 -2.2 33 +14 +14 1019.9 993.7 +14.6
18 20.05 В 1-3
{6}
10 км 3/3 1000 м
[Cu hum]
+8.0 +0.2 58 +8 +8 1020.9 994.2
21 20.05 З 1-2
{3}
10 км 8/0
[Ac und]
+7.5 +0.6 62 +7 +7 1021.6 994.8
00 21.05 З 1-2
{3}
10 км ясно +3.7 +0.5 80 +2 +2 1022.3 995.1
03 21.05 З 1-2
{3}
20 км ясно +7.6 +0.9 62 +7 +9 1022.4 995.6 +3.7
06 21.05 С 1-3
{5}
20 км 8/0
[Ci fib]
+14.8 -1.2 33 +16 +25 1021.9 995.8
09 21.05 З 3-6
{7}
20 км 8/0
[Ci fib]
+17.2 -0.7 30 +17 +28 1020.7 994.9
12 21.05 З 3-6
{7}
20 км 10/0
[Ci fib]
+19.0 -1.7 25 +19 +26 1019.6 993.9
15 21.05 З 2-4
{8}
20 км 10/0
[Ac und]
+17.6 -0.2 30 +18 +19 1018.3 992.5 +19.2

 

Местоположение метеостанции Лукоянов (Нижегородская область, Россия): широта 55.03 долгота 44.50 высота над уровнем моря 219 м.

В архиве по умолчанию представлена погода в Лукоянове за последнюю неделю. Архивные данные за месяц целиком и за предыдущие месяцы, начиная с января 2011 года, Вы можете получить, выбрав интересующий диапазон дат из раскрывающегося списка и нажав кнопку "Ввод!".


*Определитесь, кто Вы:
робот инопланетянин человек

Внимание! Время в таблицах - всемирное. Для получения местного времени необходимо прибавить поправку, которая равна 3 ч.

Смотрите также архив погоды в соседних городах и на ближайших метеорологических станциях:

Погода в Большом Болдино (Нижегородская область, Россия) (52 км)
Погода в Арзамасе (Нижегородская область, Россия) (59 км)
Погода в Краснослободске (Мордовия, Россия) (82 км)
Погода в Сергаче (Нижегородская область, Россия) (84 км)
Погода в Дальнем Константиново (Нижегородская область, Россия) (90 км)
Погода в Темникове (Мордовия, Россия) (93 км)
Погода в Саранске (Мордовия, Россия) (111 км)
Погода в Лысково (Нижегородская область, Россия) (114 км)
Погода в Порецком (Чувашия, Россия) (118 км)
Погода в Инсаре (Мордовия, Россия) (129 км)

Пояснения к столбцам:

Ветер - указаны скорость ветра в м/с - средняя за 10 мин, порывы в срок и между сроками (в фигурных скобках) и направление, откуда дует ветер: С - северный, СВ - северо-восточный, В - восточный, ЮВ - юго-восточный, Ю - южный, ЮЗ - юго-западный, З - западный, СЗ - северо-западный.
Видимость - горизонтальная дальность видимости в метрах или километрах. При видимости от 1 до 10 км при отсутствии осадков обычно наблюдается дымка, при ухудшении видимости до 1 км и менее - туман. В сухую погоду видимость может ухудшаться дымом, пылью или мглою.
Явления - указаны атмосферные явления, наблюдавшиеся в срок или в последний час перед сроком; фигурными скобками обозначены явления, наблюдавшиеся между сроками (за 1-3 часа до срока); квадратными скобками обозначены град или гололедные отложения с указанием их диаметра в мм.
Облачность - указаны через наклонную черту общая и нижняя облачность в баллах и высота нижней границы облаков в метрах; квадратными скобками обозначены формы облаков: Ci - перистые, Cs - перисто-слоистые, Cc - перисто-кучевые, Ac - высококучевые, As - высокослоистые, Sc - слоисто-кучевые, Ns - слоисто-дождевые, Cu - кучевые, Cb - кучево-дождевые. Подробнее классификацию облаков см. в Атласе облаков (PDF).
T - Температура воздуха - температура, измеренная на высоте 2 м над землей.
Td - Температура точки росы - температура, при понижении до которой содержащийся в воздухе водяной пар достигнет насыщения.
f - Относительная влажность воздуха - влажноcть воздуха, измеренная на высоте 2 м над землей.
Te - Эффективная температура - температура, которую ощущает одетый по сезону человек в тени. Характеристика душности погоды. При расчете учитывается влияние влажности воздуха и скорости ветра на теплоощущения человека.
Tes - Эффективная температура на солнце - температура, которую ощущает человек, с поправкой на солнечный нагрев. Характеристика знойности погоды. Зависит от высоты солнца над горизонтом, облачности и скорости ветра. Ночью, в пасмурную погоду, а также при ветре 12 м/с и более поправка равна нулю.
P - Атмосферное давление - приведенное к уровню моря атмосферное давление.
Po - Атмосферное давление - измеренное на уровне метеостанции атмосферное давление.
Tmin - Минимальная температура - минимум температуры воздуха на высоте 2 м над землей.
Tmax - Максимальная температура - максимум температуры воздуха на высоте 2 м над землей.
R - Количество осадков - Количество выпавших осадков за период времени, мм. При наведении курсора мыши на число - период времени, за который выпало указанное количество осадков.
R24 - Количество осадков - Количество выпавших осадков за 24 часа, мм.
S - Снежный покров - Высота снежного покрова, см. При наведении курсора мыши на число - состояние снежного покрова и степень покрытия местности в баллах.